Hourly Data Report for September 21, 2017

All times are specified in Local Standard Time (LST). Add 1 hour to adjust for Daylight Saving Time where and when it is observed.

KUGAARUK CLIMATE
NUNAVUT

68°32'15.060" N
89°47'47.020" W
15.80 m
2303094
71407
NBB

Download Data

Hourly Data (September 2017)
Hourly Data Report for September 21, 2017
Temp Definition
°C
Dew Point Temp Definition
°C
Rel Hum Definition
%
Wind Dir Definition
10's deg

Wind Spd Definition
km/h
Visibility Definition
km
Stn Press Definition
kPa
Hmdx Definition


Wind Chill Definition


Weather Definition


TIME
00:00 -2.2 -2.8 95 4 14   102.69   -7 LegendNANA
01:00 -2.3 -3.1 95 5 13   102.67   -7 LegendNANA
02:00 -2.2 -3.1 93 5 12   102.66   -6 LegendNANA
03:00 -2.8 -3.6 94 6 12   102.63   -7 LegendNANA
04:00 -2.9 -3.7 94 7 11   102.59   -7 LegendNANA
05:00 -2.9 -3.9 93 8 10   102.56   -7 LegendNANA
06:00 -2.5 -3.5 93 7 9   102.53   -6 LegendNANA
07:00 -3.1 -4.2 92 2 11   102.52   -7 LegendNANA
08:00 -2.9 -3.9 93 6 10   102.47   -7 LegendNANA
09:00 -1.7 -3.0 91 5 10   102.44   -5 LegendNANA
10:00 -1.7 -3.5 87 3 14   102.40   -6 LegendNANA
11:00 -1.9 -3.8 87 36 7   102.38   -5 LegendNANA
12:00 -1.2 -3.6 84 3 10   102.34   -5 LegendNANA
13:00 -0.8 -3.4 82 2 12   102.29   -5 LegendNANA
14:00 -0.2 -3.1 81 3 15   102.29   -5 LegendNANA
15:00 -1.1 -3.4 84 4 12   102.29   -5 LegendNANA
16:00 -0.5 -3.1 82 2 14   102.25   -5 LegendNANA
17:00 -0.7 -3.3 82 2 16   102.24   -5 LegendNANA
18:00 -1.1 -3.6 83 2 11   102.23   -5 LegendNANA
19:00 -1.3 -3.5 85 34 8   102.22   -4 LegendNANA
20:00 -1.9 -4.0 85 36 9   102.20   -5 LegendNANA
21:00 -1.6 -3.8 85 34 6   102.16   -4 LegendNANA
22:00 -1.7 -3.8 85 28 2   102.14   -2 LegendNANA
23:00 -1.1 -3.4 84 32 10   102.14   -5 LegendNANA

Notes on Data Quality.

Legend

  • E = Estimated
  • M = Missing
  • NA = Not Available
  • ‡ = Partner data that is not subject to review by the National Climate Archives
Date modified: